Skip to main content Skip to accessibility
This website is not compatible with your web browser. You should install a newer browser. If you live in Jersey and need help upgrading call the States of Jersey web team on 440099.
Homegov.je

Information and public services for the Island of Jersey

L'înformâtion et les sèrvices publyis pouor I'Île dé Jèrri

  • Choose the service you want to log in to:

  • gov.je

    Update your notification preferences

  • one.gov.je

    Access government services

  • CAESAR

    Clear goods through customs or claim relief

  • Talentlink

    View or update your States of Jersey job application

CI Airfield TAFs

JERSEY - EGJJ

EGJJ 060801Z 0609/0618 11005KT 9999 FEW005=

GUERNSEY - EGJB

EGJB 060801Z 0609/0618 13006KT 9999 FEW005=

ALDERNEY - EGJA

EGJA 060801Z 0609/0618 16006KT 9999 FEW005 PROB30 TEMPO 0609/0610 6000 BKN005=

​Apologies to the disruption to normal service. Commercial Aviation Services are available from the Jersey Met Forecaster 01534 448765.

Back to top
rating button